Regional Weather Roundup
Issued by NWS

Home | Current Version | Previous Version | Text Only | Print | Product List | Glossary Off
Versions: 1 2 3 4 5 6 7 8 9 10 11 12 13 14 15 16 17 18 19 20 21 22 23 24 25 26 27 28 29 30 31 32 33 34 35 36 37 38 39 40 41 42 43 44 45 46 47 48 49 50

000
ASUS43 KFSD 260102
RWRSD

WEATHER ROUNDUP FOR SOUTH DAKOTA
NATIONAL WEATHER SERVICE SIOUX FALLS SD
800 PM CDT MON MAY 25 2015

NOTE: "FAIR" INDICATES FEW OR NO CLOUDS BELOW 12,000 FEET WITH NO
SIGNIFICANT WEATHER AND/OR OBSTRUCTIONS TO VISIBILITY.


SDZ001>005-009-010-012>017-260200-
NORTHWEST AND NORTH CENTRAL SOUTH DAKOTA

CITY           SKY/WX    TMP DP  RH WIND       PRES   REMARKS
FAITH            N/A     57  53  86 E5        29.91F
MOBRIDGE       CLOUDY    64  56  75 S6        29.84F
$$

SDZ012>016-024>037-041>051-057-063-072>074-260200-
SOUTHWEST AND SOUTH CENTRAL SOUTH DAKOTA

CITY           SKY/WX    TMP DP  RH WIND       PRES   REMARKS
RAPID CTY ARPT CLOUDY    55  53  93 NE12      29.89R
PIERRE         CLOUDY    62  51  67 NE10      29.83R
CUSTER         LGT RAIN  50  47  89 NE5       29.93S FOG
ELLSWORTH AFB  LGT RAIN  54  54 100 NE12      29.89
PHILIP         CLOUDY    59  54  83 NE10      29.86R
PINE RIDGE     CLOUDY    56  53  90 CALM      29.86S
WINNER         CLOUDY    61  57  87 NW6       29.81R
$$

SDZ004>011-016>023-039-040-260200-
NORTHEAST SOUTH DAKOTA

CITY           SKY/WX    TMP DP  RH WIND       PRES   REMARKS
ABERDEEN       CLOUDY    66  50  56 NE9       29.82F
WATERTOWN      MOCLDY    59  52  77 N18G26    29.78S
BROOKINGS      PTCLDY    61  54  77 N12       29.78R
$$

SDZ017-020-022-023-036>040-048>070-260200-
SOUTHEAST SOUTH DAKOTA

CITY           SKY/WX    TMP DP  RH WIND       PRES   REMARKS
SIOUX FALLS    PTCLDY    67  59  75 N5        29.77R
HURON          PTCLDY    64  50  60 NE20G29   29.77F
MITCHELL       PTCLDY    66  56  70 N15       29.77R
YANKTON        PTCLDY    66  59  77 N6        29.75R
$$

ABBREVIATIONS USED IN REMARKS
   TC - TEMPERATURE IN CELSIUS
  WCI - WIND CHILL INDEX
   HX - HEAT INDEX
  VSB - VISIBILITY



USA.gov is the U.S. government's official web portal to all federal, state and local government web resources and services.